Regional Weather Roundup
Issued by NWS Pendleton, OR

Home | Current Version | Previous Version | Text Only | Print | Product List | Glossary On
Versions: 1 2 3 4 5 6 7 8 9 10 11 12 13 14 15 16 17 18 19 20 21 22 23 24 25 26 27 28 29 30 31 32 33 34 35 36 37 38 39 40 41 42 43 44 45 46 47 48 49 50
000
ASUS46 KPDT 020110
RWRPDT
PENDLETON REGIONAL WEATHER ROUNDUP
NATIONAL WEATHER SERVICE PENDLETON OREGON
500 PM PST SUN FEB 1 2015

NOTE: FAIR INDICATES FEW OR NO CLOUDS BELOW 12,000 FEET WITH NO
SIGNIFICANT WEATHER AND/OR OBSTRUCTIONS TO VISIBILITY.

# INDICATES UNOFFICIAL STATION AND DATA

WAZ520-020210-
EAST SLOPES OF WASHINGTON CASCADES

CITY            SKY/WX      TMP DP  RH  WIND    PRES   REMARKS
#BUMPING DAM    N/A         34  N/A N/A S1      N/A
#CLE ELUM HS    N/A         34  32  92  CALM    29.97F
#CLE ELUM LAKE  N/A         31  30  96  CALM    30.07R
#CLIFFDEL 2NW   N/A         34  33  96  CALM    N/A
#EASTON DOT     N/A         32  32  100 SW8     N/A
#GLENWOOD       N/A         41  39  93  SW5     30.10S
#MANASTASH CYN  N/A         33  29  85  CALM    29.97R
#NELSON         N/A         33  32  96  CALM    30.09S
#NELSON 3SW     N/A         31  30  96  CALM    30.29F
#NILE           N/A         35  32  89  CALM    29.33S
#PEOH POINT     N/A         31  31  100 W7      N/A
#RONALD 2NW     N/A         33  24  69  CALM    29.85S
#SNOWDEN        N/A         31  29  92  CALM    N/A
#TEANAWAY 4NE   N/A         33  33  100 CALM    N/A
#TROUT LAKE 1NE N/A         36  35  96  CALM    30.11S
$$

WAZ521-020210-
SIMCOE HIGHLANDS

CITY            SKY/WX      TMP DP  RH  WIND    PRES   REMARKS
#BICKLETON HS   N/A         38  38  100 W8      N/A
#SATUS PASS DOT N/A         40  34  79  W1      N/A
#CENTERVILLE 4W N/A         40  38  92  NW7     29.81R
#CENTERVILLE 1SWN/A         37  34  89  SE5     30.09S
#GOLDENDALE     N/A         38  34  85  W2      N/A
#GOLDENDALE 1NE N/A         38  29  70  CALM    N/A
#GOLDENDALE 1S  N/A         34  34  100 E5      30.03R
#GOLDENDALE 5WNWN/A         37  34  89  CALM    30.11R
#GOODNOE HILLS  N/A         37  32  82  W14     N/A    WCI 28
#LYLE 6NE       N/A         35  34  96  CALM    30.10R
$$

WAZ026-020210-
KITTITAS VALLEY

CITY            SKY/WX      TMP DP  RH  WIND    PRES   REMARKS
ELLENSBURG AP   LGT RAIN    39  31  73  CALM    30.02S
#ELLENSBURG CWU N/A         38  32  79  CALM    30.02S
#ELLENSBURG 3NE N/A         36  32  85  CALM    30.02S
#ELLENSBURG 1E  N/A         37  29  72  CALM    N/A
#KITTITAS 4N    N/A         37  32  82  CALM    28.34R
#KITTITAS 3S    N/A         37  33  85  CALM    30.06S
#THORP 6N       N/A         32  32  100 CALM    30.10S
$$

WAZ027-020210-
YAKIMA VALLEY

CITY            SKY/WX      TMP DP  RH  WIND    PRES   REMARKS
YAKIMA AIRPORT  CLOUDY      39  32  76  CALM    30.06S
YAKIMA-VAGABOND CLOUDY      37  31  79  E2      30.05S
#DONALD 2NE     N/A         38  32  79  CALM    28.92R
#MABTON         N/A         40  38  92  CALM    30.08R
#MOXEE 2E       N/A         37  31  79  CALM    30.01S
#NACHES 2SW     N/A         35  33  92  CALM    30.02F
#TERRACE HTS    N/A         37  34  89  CALM    30.06F
#TOPPENISH      N/A         39  35  85  CALM    30.02S
#WAPATO 4NE     N/A         38  32  79  CALM    28.92R
#WEST VALLEY    N/A         37  33  85  CALM    30.08F
#W YAKIMA       N/A         37  33  85  E1      30.10S
#WHITE SWAN 5E  N/A         39  35  85  E2      30.10S
#WILEY CITY 3W  N/A         35  27  72  S2      30.06F
$$

WAZ028-020210-
LOWER COLUMBIA BASIN...WASHINGTON

CITY            SKY/WX      TMP DP  RH  WIND    PRES   REMARKS
PASCO           MOCLDY      39  37  92  CALM    30.11R
PROSSER AWOS    N/A         39  39  100 S2      30.12R
RICHLAND AWOS   CLOUDY      39  36  89  SW5     30.11R
#BASIN CITY 5SW N/A         38  37  96  SE2     30.09S
#BENTON CITY    N/A         37  34  89  SW7     30.01S
#CONNELL 5N     N/A         35  34  96  SE1     30.11S
#CONNELL 5NW    N/A         35  34  96  S5      30.07F
#ELTOPIA 6NW    N/A         36  35  96  S1      29.04R
#KAHLOTUS       N/A         34  33  96  CALM    30.12R
#KENNEWICK 3S   N/A         37  35  92  CALM    30.11S
#PATERSON       N/A         39  37  92  CALM    30.09S
#PROSSER DOT    N/A         39  36  89  S6      N/A
#PROSSER        N/A         37  33  85  S8      30.10S
#SAGEMOOR 2W    N/A         38  36  92  CALM    29.96R
#TOUCHET 2S     N/A         39  38  96  CALM    30.10S
#WEST PASCO     N/A         40  36  85  CALM    30.06S
$$

WAZ029-020210-
FOOTHILLS OF THE BLUES...WASHINGTON

CITY            SKY/WX      TMP DP  RH  WIND    PRES   REMARKS
WALLA WALLA AP  CLOUDY      39  35  85  CALM    30.07R
#DAYTON SCHOOL  N/A         35  30  82  CALM    30.06S
#LOWDEN 2SE     N/A         39  38  96  CALM    30.05F
#PLEASANT VIEW 1N/A         33  32  96  CALM    30.16S
#PRESCOTT       N/A         36  35  96  CALM    30.10S
#SUDBURY        N/A         42  N/A N/A CALM    N/A
#WHITMAN COLLEGEN/A         38  37  96  CALM    30.16R
#WAITSBURG 5S   N/A         35  34  96  W2      30.21S
#WAITSBURG 8N   N/A         33  27  78  S2      29.91S
#WALLA WALLA 5E N/A         38  37  96  CALM    N/A
#WALLA WALLA U  N/A         39  38  96  CALM    30.10F
#WHITMAN MISSIONN/A         39  38  96  CALM    30.11F
$$

WAZ030-020210-
BLUE MOUNTAINS...WASHINGTON

CITY            SKY/WX      TMP DP  RH  WIND    PRES   REMARKS
#DIXIE 5SE      N/A         40  40  100 S16G25  29.94F WCI 32
$$

ORZ009-041-WAZ024-020210-
COLUMBIA RIVER GORGE

CITY            SKY/WX      TMP DP  RH  WIND    PRES   REMARKS
HOOD RIVER AP   CLOUDY      39  37  92  CALM    30.12R FOG
THE DALLES AP   LGT RAIN    41  37  86  N3      30.13R
#ARLINGTON AIRPON/A         39  36  89  W12     30.02S WCI 32
#ARLINGTON HS   N/A         42  36  79  NW12    30.06R WCI 35
#CELILO DOT     N/A         43  30  60  W3      N/A
#LYLE           N/A         41  38  89  W1      30.15R
#MARYHILL       N/A         39  37  92  CALM    N/A
#MOSIER 1S      N/A         38  32  79  CALM    30.12S
#MURDOCK        N/A         41  39  93  CALM    30.16R
#RUFUS DOT      N/A         42  32  67  CALM    N/A

$$

ORZ510-020210-
NORTH CENTRAL OREGON

CITY            SKY/WX      TMP DP  RH  WIND    PRES   REMARKS
#CHENOWITH 1W   N/A         36  36  100 S3      N/A
#COW CYN RST AREN/A         41  41  100 W2      N/A
#DUFUR 9E       N/A         35  35  100 CALM    30.20R
#GRASS VALLEY 1SN/A         37  36  96  CALM    30.16R
#KENT DOT       N/A         43  33  67  NW3     N/A
#MAUPIN SCHOOL  N/A         43  37  79  CALM    30.09R
#MORO SCHOOL    N/A         37  37  100 NW1     30.09R
#SHANIKO 5WSW   N/A         40  35  82  SW7     N/A
#SHANIKO 4NW    N/A         41  38  89  SW10    30.05R
#TYGH VALLEY 2NEN/A         41  37  86  CALM    30.12R
#WAPANITIA AIRPON/A         40  38  92  CALM    30.14R
#WASCO DOT      N/A         40  33  76  W3      N/A
#WASCO 5NE      N/A         38  36  92  SW1     30.13R
$$

ORZ511-020210-
CENTRAL OREGON

CITY            SKY/WX      TMP DP  RH  WIND    PRES   REMARKS
BEND AIRPORT    MOCLDY      48  41  77  E6      30.08R
MADRAS AIRPORT  N/A         39  39  100 MISG    30.08R
PRINEVILLE AP   CLOUDY      45  41  86  CALM    30.09R
REDMOND AIRPORT CLOUDY      46  39  76  E7      30.07R
#BEND 1SW       N/A         46  42  86  SE2     N/A
#BEND-AWBREY    N/A         46  42  86  NE2     30.15R
#BEND-KIM LN    N/A         49  43  80  SW1     30.04R
#CROOKED RVR RANN/A         49  42  77  W6      30.14R
#CULVER         N/A         49  41  74  S9      30.03R
#LAKE BILLY CHINN/A         41  30  65  CALM    30.16R
#POWELL BUTTE 3EN/A         46  40  79  E5      N/A
#POWELL BUTTE   N/A         46  40  79  SE1     29.71R
#PRINEVILLE 3N  N/A         43  41  93  CALM    30.12R
#WARM SPRINGS   N/A         42  37  82  CALM    30.06R

$$


ORZ509-020210-
EAST SLOPES OF OREGON CASCADES

CITY            SKY/WX      TMP DP  RH  WIND    PRES   REMARKS
#BLUE BOX PASS  N/A         40  -10 11  SW2     N/A
#CAMP SHERMAN   N/A         47  40  76  CALM    30.13R
#LA PINE DOT    N/A         45  41  86  S2      N/A
#LA PINE 4NW    N/A         46  40  79  CALM    30.20R
#LAVA BUTTE DOT N/A         43  40  89  SE5     N/A
#MT BACHELOR-MIDN/A         32  31  96  E26G41  N/A    WCI 18
#SISTERS AIRPOR N/A         48  45  89  N13G25  30.17S WCI 43
#SISTERS ODOT   N/A         49  N/A N/A S6      N/A
#SISTERS 3N     N/A         46  38  73  NW3     30.07R
#SUNRIVER       N/A         44  42  93  S1      30.05R
#TUMALO 3W      N/A         44  42  93  E2      30.06R
#WANOGA BUTTE D N/A         38  36  92  W8      N/A

$$

ORZ044-020210-
LOWER COLUMBIA BASIN...OREGON

CITY            SKY/WX      TMP DP  RH  WIND    PRES   REMARKS
HERMISTON       CLOUDY      40  36  85  SE3     30.08S
#BOARDMAN SCHOOLN/A         42  37  82  CALM    30.11S
#BOARDMAN 8SW   N/A         41  39  93  SW5     30.11R
#ECHO 8SW       N/A         41  37  86  SW2     30.06S
#IONE SCHOOL    N/A         40  28  62  CALM    30.07R
#IRRIGON 4NW    N/A         41  41  100 S2      N/A
#UMATILLA SCHOOLN/A         37  37  100 CALM    30.13F
#UMATILLA       N/A         41  35  79  CALM    30.07S
$$

ORZ507-020210-
NORTHERN FOOTHILLS OF THE BLUES

CITY            SKY/WX      TMP DP  RH  WIND    PRES   REMARKS
PENDLETON AIRPT CLOUDY      36  35  96  S3      30.06R FOG
#ADAMS 3WNW     N/A         36  34  92  CALM    30.11S
#ATHENA         N/A         36  35  96  S1      30.13F
#CAYUSE         N/A         37  36  96  CALM    30.10F
#HELIX SCHOOL   N/A         36  34  92  CALM    30.12S
#HELIX 3N       N/A         36  35  96  S8      30.01S
#HOLDMAN 5SE    N/A         38  36  92  CALM    30.06F
#HOLDMAN 6E     N/A         36  34  92  N2      29.92F
#M-F FERNDALE   N/A         39  36  89  CALM    30.06F
#M-F GROVE ELEM N/A         39  35  85  CALM    30.04F
#M-FREEWATER 5SEN/A         38  36  92  CALM    30.05R
#PENDLETON DNTN N/A         38  35  89  CALM    28.88S
#PDT AQUATIC CTRN/A         39  35  85  CALM    30.07S
#PENDLETON 5NE  N/A         37  36  96  CALM    30.03S
#PDT SUNRIDGE   N/A         37  35  92  CALM    30.09S
#PENDLETON 7NW  N/A         38  34  85  CALM    N/A
#PILOT ROCK     N/A         38  35  89  CALM    30.05F
#TUTUILLA       N/A         37  35  92  CALM    30.10S
#UMAPINE 2E     N/A         40  39  96  NE1     30.05S
#WESTON SCHOOL  N/A         43  39  86  SW8     30.03S

$$

ORZ508-020210-
SOUTHERN FOOTHILLS OF THE BLUES

CITY            SKY/WX      TMP DP  RH  WIND    PRES   REMARKS
LEXINGTON       PTCLDY      39  39  100 CALM    30.08R
#AJAX           N/A         38  33  82  CALM    30.00R
#CONDON SCHOOL  N/A         40  39  96  CALM    30.01R
#CONDON 5W      N/A         38  38  100 S9      30.01R
#FOSSIL SCHOOL  N/A         47  41  79  CALM    30.03R
#HEPPNER EOC    N/A         40  38  92  CALM    30.08R
#HEPPNER 4NE    N/A         38  37  96  SW1     30.13R
#LEXINGTON 2SE  N/A         41  37  86  CALM    30.02R
#MIKKALO        N/A         39  37  92  NE5     30.06S
#OLEX 4N        N/A         40  38  92  SW10    30.08S
#RUGGS 5NE      N/A         44  39  82  SW8     30.20S
#RUGGS 2SW      N/A         42  41  96  W7      30.16R

$$

ORZ502-503-020210-
BLUE MOUNTAINS

CITY            SKY/WX      TMP DP  RH  WIND    PRES   REMARKS
MEACHAM         LGT RAIN    36  35  96  CALM    30.03R
#BATTLE MTN DOT N/A         35  35  100 S6      N/A
#HARDMAN 10S    N/A         37  35  92  S3      30.25R
#HEPPNER 15SE   N/A         40  37  89  NW2     29.94R
#LADD CYN SMT   N/A         33  30  89  SE14    N/A    WCI 23
#LADD CREEK ODOTN/A         35  34  96  S6      N/A
#LONG CREEK HS  N/A         43  41  93  CALM    30.01S
#N POWDER DOT   N/A         32  32  100 CALM    N/A
#PIKES PEAK     N/A         39  37  92  SW25G32 27.99S WCI 28
#TOLLGATE       N/A         32  31  96  SW2     29.92S
#TROY SCHOOL    N/A         41  39  93  CALM    29.96S
#UKIAH          N/A         39  37  92  CALM    30.17S
#WESTON 4E      N/A         37  36  96  SE9     30.09F
$$

ORZ505-020210-
JOHN DAY BASIN

CITY            SKY/WX      TMP DP  RH  WIND    PRES   REMARKS
JOHN DAY        LGT DRIZZLE 43  38  82  S6      30.09R
#JOHN DAY KJDY  N/A         42  40  93  CALM    30.00F
#DAYVILLE SCHOOLN/A         40  36  85  CALM    30.06R
#MITCHELL       N/A         40  40  100 CALM    30.19R
#MONUMENT HS    N/A         41  36  82  CALM    30.09R
#MT. VERNON 5SE N/A         40  38  92  CALM    30.02S
#WINLOCK        N/A         39  36  89  CALM    30.15R
$$

ORZ506-020210-
OCHOCO AND JOHN DAY HIGHLANDS

CITY            SKY/WX      TMP DP  RH  WIND    PRES   REMARKS
#BUCK CREEK DOT N/A         49  49  100 SW15    N/A    WCI 43
#HORSE RIDGE DO N/A         48  39  71  SW12    N/A    WCI 43
#KEYES SMT DOT  N/A         41  39  93  CALM    N/A
#PAULINA SCHOOL N/A         38  27  64  CALM    30.05R
#PINE MTN OBS   N/A         37  35  92  SW6     N/A
#PRAIRIE CITY   N/A         38  34  85  CALM    30.17R
#SENECA         N/A         37  N/A N/A CALM    N/A
#SENECA 9NW     N/A         35  34  96  CALM    30.17R
$$

ORZ049-020210-
GRANDE RONDE VALLEY

CITY            SKY/WX      TMP DP  RH  WIND    PRES   REMARKS
LA GRANDE       CLOUDY      39  30  70  S16     30.06S WCI 30
#COVE           N/A         37  31  79  CALM    30.03S
#COVE SCHOOL    N/A         38  37  96  CALM    30.04R
#COVE 6NW       N/A         36  34  92  S2      30.21S
#ELGIN 3N       N/A         37  32  82  S3      29.86S
#ELGIN 1E       N/A         38  34  85  CALM    N/A
#IMBLER SCHOOL  N/A         36  34  92  S13     30.02S WCI 27
#ISLAND CITY 4N N/A         44  43  96  CALM    30.13R
#LADD CYN DOT   N/A         38  34  85  S12     N/A    WCI 30
#UNION 1S       N/A         37  34  89  S8      30.08R
$$

ORZ050-020210-
WALLOWA COUNTY

CITY            SKY/WX      TMP DP  RH  WIND    PRES   REMARKS
#ENTERPRISE AP  N/A         33  30  89  CALM    29.96S
#ENTERPRISE HS  N/A         34  32  92  CALM    30.04S
#IMNAHA 10S     N/A         34  32  92  SW1     30.04R
#JOSEPH 3N      N/A         33  29  85  CALM    30.04F
#JOSEPH 3W      N/A         32  28  85  CALM    29.86R
#LOSTINE        N/A         33  31  92  CALM    29.93F
#MT HOWARD 8000 N/A         29  26  88  W8G26   29.96R
#PROMISE 1S     N/A         35  33  92  CALM    30.23S
#SHEEP RDG 7000 N/A         30  29  96  CALM    30.02S
#WALLOWA SCHOOL N/A         34  32  92  CALM    31.11S



$$



USA.gov is the U.S. government's official web portal to all federal, state and local government web resources and services.